Lansing, MI

8:16 PM EDT on August 18, 2017 (GMT -0400)
Capital City

Weather History for KLAN - November, 2012

Change the Weather History Date:

Sunday, November 4, 2012

  Actual Average Record
Temperature  
Mean Temperature 32 °F 44 °F  
Max Temperature 39 °F 52 °F 76 °F (2015)
Min Temperature 25 °F 36 °F 9 °F (1966)
Degree Days  
Heating Degree Days 33 21  
Month to date heating degree days 115 82  
Since 1 July heating degree days 737 732  
Cooling Degree Days 0 0  
Month to date cooling degree days 0 0  
Year to date cooling degree days 940 625  
Moisture  
Dew Point 25 °F    
Average Humidity 70    
Maximum Humidity 85    
Minimum Humidity 54    
Precipitation  
Precipitation 0.00 in 0.09 in 1.36 in (1959)
Month to date precipitation T 0.38  
Year to date precipitation 26.05 27.50  
Snow  
Snow 0.00 in 0.10 in 4.50 in (1864)
Month to date snowfall 0.0 0.2  
Since 1 July snowfall 0.1 0.6  
Since 1 September snowfall 0.1 0.6  
Snow Depth 0.00 in    
Sea Level Pressure  
Sea Level Pressure 30.23 in    
Wind  
Wind Speed 3 mph (North)    
Max Wind Speed 10 mph    
Max Gust Speed 13 mph    
Visibility 10 miles    
Events      
T = Trace of Precipitation, MM = Missing Value Source: NWS Daily Summary

Daily Weather History Graph

Daily Weather History Graph

Search for Another Location

Airport or City:

Trip Planner

Search our weather history database for the weather conditions in past years. The results will help you decide how hot, cold, wet, or windy it might be!

Date:

Astronomy

Nov. 04, 2012 Rise Set
Actual Time 7:16 AM EST 5:26 PM EST
Civil Twilight 6:47 AM EST 5:56 PM EST
Nautical Twilight 6:13 AM EST 6:29 PM EST
Astronomical Twilight 5:40 AM EST 7:02 PM EST
Moon 10:02 PM EST (11/4) 12:01 PM EST (11/4)
Length of Visible Light 11h 08m
Length of Day
10h 09m
Waning Gibbous, 72% of the Moon is Illuminated
Nov 4
Waning Gibbous
Nov 6
Last Quarter
Nov 13
New
Nov 20
First Quarter
Nov 28
Full

Hourly Weather History & Observations

Time (EST) Temp. Windchill Dew Point Humidity Pressure Visibility Wind Dir Wind Speed Gust Speed Precip Events Conditions
12:16 AM 33.8 °F - 28.4 °F 81% 30.19 in 10.0 mi Calm Calm - N/A   Overcast
12:53 AM 33.1 °F 30.0 °F 28.0 °F 82% 30.22 in 10.0 mi North 3.5 mph - N/A   Overcast
1:53 AM 34.0 °F 31.0 °F 28.0 °F 79% 30.22 in 10.0 mi ENE 3.5 mph - N/A   Overcast
1:53 AM 33.1 °F 30.0 °F 28.0 °F 82% 30.22 in 10.0 mi NE 3.5 mph - N/A   Overcast
2:53 AM 33.1 °F - 27.0 °F 78% 30.21 in 10.0 mi Calm Calm - N/A   Overcast
3:53 AM 33.1 °F 30.0 °F 27.0 °F 78% 30.22 in 10.0 mi NNW 3.5 mph - N/A   Overcast
4:53 AM 33.1 °F 28.7 °F 28.0 °F 82% 30.23 in 10.0 mi North 4.6 mph - N/A   Overcast
5:53 AM 32.0 °F 28.7 °F 26.1 °F 79% 30.23 in 10.0 mi NNE 3.5 mph - N/A   Overcast
6:53 AM 32.0 °F - 27.0 °F 82% 30.24 in 10.0 mi Calm Calm - N/A   Overcast
7:53 AM 32.0 °F - 26.1 °F 79% 30.26 in 10.0 mi Calm Calm - N/A   Overcast
8:53 AM 32.0 °F 25.6 °F 24.1 °F 73% 30.25 in 10.0 mi NNE 6.9 mph - N/A   Overcast
9:53 AM 32.0 °F 27.5 °F 21.9 °F 66% 30.26 in 10.0 mi North 4.6 mph - N/A   Overcast
10:53 AM 33.1 °F 26.9 °F 23.0 °F 66% 30.25 in 10.0 mi NNE 6.9 mph - N/A   Overcast
11:53 AM 35.1 °F 29.3 °F 23.0 °F 61% 30.24 in 10.0 mi NE 6.9 mph - N/A   Mostly Cloudy
12:53 PM 36.0 °F - 24.1 °F 62% 30.23 in 10.0 mi Calm Calm - N/A   Overcast
1:53 PM 37.0 °F 33.3 °F 23.0 °F 57% 30.22 in 10.0 mi Variable 4.6 mph - N/A   Mostly Cloudy
2:53 PM 37.0 °F 34.5 °F 23.0 °F 57% 30.21 in 10.0 mi West 3.5 mph - N/A   Mostly Cloudy
3:53 PM 37.9 °F 34.4 °F 23.0 °F 55% 30.21 in 10.0 mi NW 4.6 mph - N/A   Mostly Cloudy
4:53 PM 37.0 °F 33.3 °F 23.0 °F 57% 30.21 in 10.0 mi NNW 4.6 mph - N/A   Mostly Cloudy
5:53 PM 34.0 °F - 23.0 °F 64% 30.21 in 10.0 mi Calm Calm - N/A   Scattered Clouds
6:53 PM 30.9 °F - 24.1 °F 76% 30.22 in 10.0 mi Calm Calm - N/A   Partly Cloudy
7:53 PM 28.0 °F - 23.0 °F 81% 30.22 in 10.0 mi Calm Calm - N/A   Partly Cloudy
8:53 PM 28.9 °F - 24.1 °F 82% 30.22 in 10.0 mi Calm Calm - N/A   Clear
9:53 PM 28.0 °F - 24.1 °F 85% 30.22 in 10.0 mi Calm Calm - N/A   Clear
10:53 PM 26.1 °F - 21.0 °F 81% 30.22 in 10.0 mi Calm Calm - N/A   Clear